Flag for Germany Weather past 2 weeks in Steinfurt, North Rhine-Westphalia, Germany

Now
52 °F

Cool.


Feels Like: 47 °F
Forecast: 40 / 45 °F
Wind: 14 mph from Southwest

Location: Rheine-Bentlage

Current Time: Dec 19, 2014 at 3:48:42 PM

Latest Report: Dec 19, 2014 at 2:20 PM


Visibility: N/A

Pressure: 29.80 "Hg

Humidity: 100%

Dew point: 52 °F

Location of SteinfurtLocation

Historic Weather in Steinfurt — Graph

°F

Steinfurt temperature yesterday

Maximum temperature yesterday: 54 °F (at 2:20 PM)
Minimum temperature yesterday: 50 °F (at 12:20 AM)
Average temperature yesterday: 52 °F

Past Weeks' High & Low Weather Summary

 TemperatureHumidityPressure
High54 °F (Dec 18, 2:20 PM)100% (Dec 5, 3:20 AM)30.36 "Hg (Dec 5, 3:20 AM)
Low34 °F (Dec 4, 2:20 PM)66% (Dec 10, 4:20 PM)29.30 "Hg (Dec 12, 1:20 PM)
Average41 °F89%29.89 "Hg
* Reported Dec 4 2:20 PM — Dec 19 2:20 PM, Steinfurt, Weather by CustomWeather, © 2014

Note: Actual official high and low records may vary slightly from our data, if they occured in-between our weather recording intervals... More about our weather records

Advertising

Steinfurt weather history for previous 24 hours

 ConditionsComfort  
Time TempWeatherWind HumidityBarometerVisibility
2:20 PM
Dec 19
52 °FCool.14 mph100%29.80 "HgN/A
1:20 PM52 °FCool.14 mph100%29.77 "HgN/A
12:20 PM52 °FCool.14 mph100%29.77 "HgN/A
11:20 AM52 °FCool.14 mph100%29.74 "HgN/A
10:20 AM52 °FRain. Fog.14 mph100%29.71 "Hg3 mi
9:20 AM52 °FRain. Fog.14 mph100%29.71 "Hg2 mi
8:20 AM52 °FLight rain. Fog.14 mph100%29.71 "Hg2 mi
7:20 AM52 °FLight rain. Fog.14 mph100%29.71 "Hg2 mi
6:20 AM52 °FLight rain. Fog.14 mph100%29.71 "Hg3 mi
5:20 AM52 °FLight rain. Fog.14 mph100%29.74 "Hg3 mi
4:20 AM52 °FCool.12 mph100%29.74 "HgN/A
3:20 AM52 °FCool.12 mph100%29.77 "HgN/A
2:20 AM54 °FCool.14 mph94%29.77 "HgN/A
1:20 AM54 °FCool.15 mph94%29.77 "HgN/A
12:20 AM54 °FCool.15 mph94%29.77 "HgN/A
11:20 PM
Dec 18
54 °FCool.14 mph94%29.77 "HgN/A
10:20 PM54 °FCool.13 mph94%29.77 "HgN/A
9:20 PM54 °FCool.16 mph94%29.77 "HgN/A
8:20 PM54 °FCool.17 mph94%29.77 "HgN/A
7:20 PM54 °FCool.18 mph94%29.77 "HgN/A
6:20 PM54 °FCool.15 mph94%29.74 "HgN/A
5:20 PM54 °FCool.16 mph94%29.74 "HgN/A
4:20 PM54 °FCool.15 mph94%29.74 "HgN/A
3:20 PM54 °FLow clouds.13 mph94%29.74 "Hg4 mi
Weather by CustomWeather, © 2014

See weather overviewHow to use our weather pages